Location: Adrasan
(36.3319°N, 30.4314°E)
Time: 08:38:32
(UTC+00:00)

Cosmos 1655 Rocket - Pass Details

Date: 09 December 2023
Orbit: 970 x 1006 km, 82.9° (Epoch: 29 February)

Event Time Altitude Azimuth Distance (km) Brightness Sun altitude
Rises 17:21:19 0° 195° (SSW) 3,648 7.3 -31.1°
Reaches altitude 10° 17:23:50 10° 198° (SSW) 2,703 6.6 -31.6°
Maximum altitude 17:29:56 61° 278° (W) 1,090 4.3 -32.8°
Enters shadow 17:30:54 55° 317° (NW) 1,157 4.4 -33.0°
